{"data":{"norad_id":55177,"epoch":"2026-05-25T02:41:54.909312Z","epoch_age_seconds":75713,"freshness":"FRESH","line1":"1 55177U 23004AP  26145.11244108  .00000029  00000+0  41520-4 0  9999","line2":"2 55177  87.9154  10.4573 0001788  76.3213 283.8118 13.17650093164543","mean_motion":13.17650093,"eccentricity":0.0001788,"inclination_deg":87.9154,"raan_deg":10.4573,"arg_perigee_deg":76.3213,"mean_anomaly_deg":283.8118,"bstar":4.152e-5,"rev_number":16454,"period_min":109.28546263154,"perigee_km":1192.3552265167,"apogee_km":1195.0629186723,"semimajor_km":7571.8460725945,"source":"CELESTRAK","updated_at":"2026-05-25T13:38:22.647621Z"}}